Total_Precipitation_Accumulation
1.51 1.07 1.75 1.64 1.47 1.25 1.17 1.21 1.23 1.23 1.24 1.19 1.10 0.97 0.85 0.79 0.74 0.70 0.64 0.58 0.57 0.60 0.66 0.71 0.69 0.69 0.62 0.60 0.62 0.67 0.67 0.66 0.65 0.56 0.52 0.53 0.58 0.67 0.85 1.00 1.26 1.65 1.21
0.97 0.82 1.55 1.72 1.57 1.40 1.32 1.20 1.14 1.15 1.14 1.09 1.03 0.93 0.82 0.76 0.71 0.67 0.63 0.58 0.55 0.55 0.61 0.66 0.70 0.73 0.70 0.68 0.75 0.80 0.75 0.70 0.76 0.74 0.80 0.89 0.77 0.73 0.75 0.91 1.33 1.61 1.18
0.71 0.66 1.03 1.60 1.59 1.49 1.41 1.27 1.11 1.07 0.99 0.92 0.90 0.80 0.75 0.70 0.64 0.60 0.59 0.60 0.57 0.54 0.56 0.62 0.69 0.74 0.74 0.79 0.83 0.86 0.84 0.82 0.83 0.86 1.24 1.77 1.32 0.92 0.89 0.94 1.01 1.06 1.05
0.55 0.58 0.82 1.36 1.40 1.38 1.35 1.16 1.07 0.99 0.90 0.88 0.86 0.80 0.78 0.72 0.66 0.63 0.63 0.58 0.54 0.54 0.59 0.63 0.67 0.75 0.78 0.79 0.77 0.75 0.78 0.83 0.94 0.93 1.30 1.75 1.72 1.27 1.07 1.06 0.95 0.96 1.07
0.53 0.64 1.00 1.36 1.33 1.28 1.18 1.06 1.07 0.96 0.85 0.86 0.85 0.82 0.83 0.78 0.73 0.65 0.64 0.63 0.59 0.61 0.65 0.66 0.69 0.73 0.77 0.80 0.77 0.73 0.76 0.97 0.96 0.89 1.16 1.46 1.84 1.48 1.16 1.15 1.05 1.02 1.11
0.69 0.69 0.85 1.10 1.14 1.14 0.97 0.90 0.97 0.91 0.86 0.80 0.75 0.75 0.75 0.72 0.72 0.68 0.70 0.70 0.67 0.66 0.71 0.75 0.79 0.80 0.80 0.80 0.79 0.83 0.93 0.98 0.89 1.07 1.23 1.45 1.71 1.45 1.12 1.06 1.12 1.18 1.27
0.67 0.60 0.66 0.96 0.99 0.98 0.90 0.90 1.00 0.93 0.86 0.75 0.71 0.75 0.77 0.74 0.72 0.72 0.75 0.73 0.70 0.67 0.69 0.75 0.79 0.80 0.76 0.77 0.80 0.84 0.92 0.89 0.96 1.18 1.25 1.44 1.43 1.29 1.09 1.00 1.15 1.21 1.31
0.82 0.69 0.67 0.94 0.97 0.93 0.92 0.91 0.97 1.00 0.90 0.78 0.73 0.71 0.69 0.70 0.68 0.69 0.69 0.71 0.71 0.69 0.72 0.73 0.74 0.72 0.66 0.68 0.71 0.74 0.86 0.83 0.84 1.02 1.13 1.36 1.41 1.29 1.02 0.97 1.06 1.17 1.30
1.15 1.04 0.95 0.94 0.88 0.91 0.95 0.89 1.04 1.18 1.03 0.86 0.77 0.74 0.67 0.64 0.62 0.62 0.62 0.68 0.68 0.72 0.70 0.69 0.73 0.72 0.69 0.67 0.68 0.75 0.86 0.83 0.76 0.92 0.93 1.25 1.44 1.33 1.12 1.02 1.03 1.18 1.31
1.14 1.08 1.07 1.11 1.09 1.07 1.08 1.14 1.27 1.58 1.46 1.08 0.88 0.76 0.71 0.64 0.62 0.65 0.61 0.65 0.73 0.76 0.76 0.78 0.79 0.79 0.81 0.76 0.74 0.82 0.86 0.70 0.71 0.72 0.82 1.04 1.48 1.37 1.14 1.01 0.97 1.01 1.11
0.89 0.92 0.96 1.00 1.01 1.04 1.00 1.16 1.43 1.72 1.77 1.43 1.14 0.98 0.82 0.57 0.60 0.68 0.63 0.74 0.84 0.87 0.88 0.94 0.97 0.91 0.90 0.81 0.82 0.84 0.72 0.54 0.77 0.81 0.87 1.09 1.41 1.39 1.11 0.89 0.81 0.86 0.89
0.67 0.62 0.62 0.65 0.70 0.74 0.80 1.06 1.29 1.35 1.54 1.33 1.29 1.14 0.99 0.92 0.87 0.70 0.66 0.84 0.94 0.97 0.95 1.01 1.06 0.92 0.78 0.63 0.68 0.72 0.51 0.51 0.70 0.74 0.76 1.22 1.54 1.50 1.19 0.96 0.86 0.85 0.82
0.62 0.56 0.49 0.48 0.51 0.58 0.71 0.92 1.13 1.25 1.41 1.42 1.39 1.33 1.33 1.27 0.94 0.78 0.86 0.90 0.93 0.94 0.84 0.87 0.88 0.73 0.59 0.54 0.60 0.56 0.48 0.51 0.63 0.72 0.86 1.23 1.59 1.60 1.27 1.04 1.00 0.94 0.92
0.54 0.60 0.53 0.39 0.39 0.41 0.50 0.68 0.88 1.08 1.26 1.31 1.14 1.06 1.19 1.21 1.01 0.89 1.02 1.10 1.08 1.05 1.05 1.04 0.96 0.83 0.64 0.58 0.59 0.59 0.54 0.60 0.67 0.74 0.89 1.00 1.38 1.55 1.43 1.22 1.17 1.06 1.08
0.54 0.60 0.61 0.51 0.41 0.39 0.45 0.53 0.59 0.87 1.05 1.20 1.25 1.03 1.15 1.19 1.12 1.00 0.94 1.11 1.08 1.08 1.10 1.10 1.06 0.96 0.87 0.75 0.72 0.66 0.71 0.71 0.69 0.66 0.82 0.85 1.07 1.40 1.52 1.46 1.42 1.25 1.25
0.49 0.56 0.58 0.60 0.56 0.50 0.49 0.52 0.51 0.56 0.67 0.79 0.76 0.73 0.92 1.04 1.02 1.02 0.89 0.95 1.02 1.14 1.30 1.29 1.13 1.06 0.99 0.90 0.91 0.86 0.85 0.82 0.79 0.68 0.77 0.83 0.77 0.91 1.18 1.48 1.63 1.50 1.43
0.43 0.48 0.53 0.58 0.63 0.63 0.63 0.71 0.64 0.59 0.64 0.64 0.60 0.61 0.72 0.83 0.86 0.98 0.97 0.94 0.96 1.15 1.33 1.41 1.32 1.23 1.06 1.01 1.01 0.98 0.90 0.93 0.91 0.81 0.82 0.91 0.76 0.71 0.93 1.32 1.63 1.70 1.64
0.39 0.38 0.41 0.44 0.49 0.54 0.60 0.68 0.73 0.73 0.75 0.71 0.74 0.70 0.66 0.80 0.92 1.04 1.08 1.01 1.01 1.17 1.35 1.48 1.54 1.51 1.38 1.29 1.23 1.12 1.08 1.16 1.06 0.95 0.91 0.94 0.98 0.87 0.84 0.98 1.26 1.54 1.75
0.37 0.33 0.31 0.32 0.32 0.35 0.42 0.54 0.65 0.72 0.80 0.87 0.88 0.87 0.85 0.90 0.93 1.07 1.23 1.25 1.23 1.31 1.36 1.37 1.46 1.44 1.47 1.47 1.32 1.29 1.22 1.28 1.27 1.11 1.09 1.10 1.13 1.11 0.98 0.81 0.93 0.98 1.34
0.32 0.31 0.30 0.31 0.30 0.27 0.31 0.45 0.56 0.63 0.71 0.87 0.94 1.01 1.27 1.37 1.16 1.12 1.24 1.26 1.30 1.45 1.47 1.58 1.73 1.61 1.51 1.60 1.50 1.40 1.33 1.28 1.26 1.26 1.28 1.29 1.29 1.19 1.15 1.00 1.00 0.81 0.90
0.18 0.17 0.19 0.24 0.31 0.29 0.26 0.33 0.44 0.53 0.67 0.81 0.98 1.05 1.28 1.39 1.29 1.31 1.31 1.30 1.33 1.39 1.43 1.61 1.93 1.89 1.69 1.61 1.79 1.73 1.60 1.42 1.34 1.32 1.33 1.46 1.49 1.33 1.31 1.34 1.22 1.01 0.83
0.11 0.10 0.12 0.16 0.25 0.32 0.36 0.41 0.53 0.71 0.83 0.93 1.07 1.14 1.25 1.28 1.27 1.21 1.35 1.44 1.39 1.48 1.56 1.72 1.97 2.11 1.89 1.73 2.01 2.37 2.11 1.84 1.53 1.34 1.35 1.32 1.43 1.44 1.37 1.25 1.21 1.15 1.00
0.07 0.08 0.12 0.20 0.33 0.50 0.66 0.88 1.13 1.41 1.53 1.42 1.27 1.35 1.48 1.56 1.52 1.45 1.53 1.66 1.56 1.57 1.64 1.69 1.75 2.12 2.23 2.04 2.00 2.46 2.29 2.12 2.06 1.61 1.29 1.19 1.39 1.50 1.52 1.40 1.30 1.32 1.25
0.15 0.21 0.30 0.41 0.57 0.74 0.95 1.17 1.43 1.66 1.83 1.84 1.86 1.90 1.88 1.84 1.74 1.62 1.62 1.67 1.67 1.71 1.66 1.55 1.68 2.03 2.43 2.43 2.25 2.06 1.89 1.84 2.07 1.94 1.44 1.20 1.30 1.44 1.61 1.51 1.44 1.44 1.41
0.32 0.44 0.54 0.76 0.93 1.07 1.13 1.23 1.45 1.56 1.63 1.74 1.89 1.94 1.93 1.86 1.74 1.60 1.53 1.58 1.65 1.74 1.73 1.77 1.91 2.18 2.41 2.59 2.52 2.26 2.01 1.80 1.53 1.68 1.70 1.51 1.31 1.26 1.33 1.44 1.53 1.50 1.43
0.60 0.83 0.97 1.07 1.16 1.16 1.14 1.16 1.30 1.44 1.53 1.61 1.74 1.80 1.73 1.60 1.57 1.53 1.51 1.48 1.44 1.51 1.61 1.77 1.99 2.12 2.30 2.50 2.50 2.23 2.05 1.91 1.74 1.66 1.53 1.60 1.59 1.34 1.21 1.20 1.30 1.40 1.41